Погода в Старой Меловой

Россия / Воронежская область     50°17′03″N   40°51′51″E
темп.,
°C
ветер,
м/с
пор.,
м/с
влажн.,
%
обл.,
%
осадки,
мм/ч
давл.,
гПа
погр.,
м
10 августа, ср
ср1000:00+23всв11341 0.0 101711
03:00+21всв22385 0.0 101611
06:00+22вюв224086 0.0 101711
09:00+30вюв342760 0.0 1016526
12:00+33вюв4320100 0.0 10153406
15:00+35в4417100 0.0 10143807
18:00+33св572156 0.0 1013653
21:00+25св473370 0.0 1014107
11 августа, чт
чт1100:00+23всв483824 0.0 1014133
03:00+23всв3639100 0.0 1014109
06:00+22св3746100 0.0 1015118
09:00+28в4537100 0.0 1015422
12:00+31всв673064 0.0 10151064
15:00+34всв782379 0.0 10143155
18:00+30вюв4934100 0.1 1014507
21:00+24ссв51146100 0.3 1015248
12 августа, пт
пт1200:00+25св6134696 0.0 1017486
03:00+23всв7135060 0.0 1016411
06:00+21всв61168100 0.0 1018315
09:00+27в6846100 0.0 1018543
12:00+32в6731100 0.0 10181277
15:00+35в4724100 0.0 10172953
18:00+27сз5746100 0.3 1017131
21:00+25с5954100 0.4 1018183
13 августа, сб
сб1300:00+22с4773100 1.0 1019101
03:00+21ссв6117681 1.8 1019203
06:00+21св71370100 0.0 1019304
09:00+28всв7104074 0.0 1019692
12:00+33в782862 0.0 10181643
15:00+36всв672265 0.0 10163143
18:00+34всв792774 0.0 10151582
21:00+28всв6143689 0.0 1016365
14 августа, вс
вс1400:00+27в51438100 0.0 1017465
03:00+24всв5114015 0.0 1017330
06:00+23всв5124168 0.0 1017311
09:00+26в6113352 0.0 1017430
12:00+34в76214 0.0 10161750
15:00+35всв66195 0.0 10153036
18:00+33всв672222 0.0 10151847
21:00+27всв6142882 0.0 1015306